| time (UTC) | temp C | wind direction | speed KPH | gust KPH | rain 1hr cm | rain 24hr cm | rain mn cm | humidity % | barometer mb |
| 20260510231059 | 19 | 106 | 0.0 | 3.2 | 0.00 | 0.00 | 0.00 | 80 | 1013.4 |
| 20260510230559 | 19 | 106 | 0.0 | 3.2 | 0.00 | 0.00 | 0.00 | 78 | 1013.4 |
| 20260510230059 | 19 | 0 | 0.0 | 3.2 | 0.00 | 0.00 | 0.00 | 78 | 1013.4 |
| 20260510225600 | 19 | 0 | 0.0 | 4.8 | 0.00 | 0.00 | 0.00 | 78 | 1013.5 |
| 20260510225100 | 19 | 0 | 0.0 | 4.8 | 0.00 | 0.00 | 0.00 | 78 | 1013.6 |
| 20260510224600 | 19 | 0 | 0.0 | 4.8 | 0.00 | 0.00 | 0.00 | 78 | 1013.5 |
| 20260510224103 | 19 | 0 | 0.0 | 3.2 | 0.00 | 0.00 | 0.00 | 78 | 1013.3 |
| 20260510223600 | 19 | 0 | 0.0 | 3.2 | 0.00 | 0.00 | 0.00 | 76 | 1013.1 |
| 20260510223058 | 20 | 0 | 0.0 | 3.2 | 0.00 | 0.00 | 0.00 | 76 | 1012.9 |
| 20260510222600 | 20 | 0 | 0.0 | 0.0 | 0.00 | 0.00 | 0.00 | 76 | 1012.8 |
| 20260510222058 | 20 | 0 | 0.0 | 0.0 | 0.00 | 0.00 | 0.00 | 76 | 1012.7 |
| 20260510221600 | 20 | 0 | 0.0 | 3.2 | 0.00 | 0.00 | 0.00 | 74 | 1012.5 |
| 20260510221059 | 20 | 0 | 0.0 | 3.2 | 0.00 | 0.00 | 0.00 | 74 | 1012.1 |
| 20260510220604 | 20 | 0 | 0.0 | 3.2 | 0.00 | 0.00 | 0.00 | 74 | 1011.8 |
| 20260510220100 | 20 | 0 | 0.0 | 4.8 | 0.00 | 0.00 | 0.00 | 73 | 1011.7 |
| 20260510215600 | 20 | 0 | 0.0 | 4.8 | 0.00 | 0.00 | 0.00 | 74 | 1011.7 |
| 20260510215100 | 20 | 0 | 0.0 | 4.8 | 0.00 | 0.00 | 0.00 | 73 | 1011.5 |
| 20260510214606 | 20 | 91 | 0.0 | 4.8 | 0.00 | 0.00 | 0.00 | 71 | 1011.7 |
| 20260510214059 | 20 | 130 | 1.6 | 8.0 | 0.00 | 0.00 | 0.00 | 70 | 1011.8 |
| 20260510213601 | 20 | 130 | 1.6 | 8.0 | 0.00 | 0.00 | 0.00 | 70 | 1012.0 |
| 20260510213100 | 20 | 0 | 0.0 | 8.0 | 0.00 | 0.00 | 0.00 | 69 | 1011.8 |
| 20260510212558 | 20 | 108 | 1.6 | 8.0 | 0.00 | 0.00 | 0.00 | 68 | 1011.7 |
| 20260510212059 | 21 | 139 | 0.0 | 8.0 | 0.00 | 0.00 | 0.00 | 67 | 1011.6 |
| 20260510211611 | 21 | 59 | 1.6 | 9.7 | 0.00 | 0.00 | 0.00 | 66 | 1011.6 |
| 20260510211059 | 21 | 0 | 1.6 | 19.3 | 0.00 | 0.00 | 0.00 | 64 | 1011.6 |
| 20260510210602 | 22 | 125 | 3.2 | 19.3 | 0.00 | 0.00 | 0.00 | 60 | 1011.7 |
| 20260510210058 | 23 | 265 | 4.8 | 19.3 | 0.00 | 0.00 | 0.00 | 56 | 1011.7 |
| 20260510205559 | 24 | 33 | 0.0 | 8.0 | 0.00 | 0.00 | 0.00 | 51 | 1011.8 |
| 20260510205059 | 24 | 0 | 1.6 | 8.0 | 0.00 | 0.00 | 0.00 | 48 | 1011.4 |
| 20260510204600 | 25 | 134 | 0.0 | 4.8 | 0.00 | 0.00 | 0.00 | 51 | 1011.4 |
| 20260510204100 | 25 | 64 | 0.0 | 4.8 | 0.00 | 0.00 | 0.00 | 48 | 1011.2 |
| 20260510203558 | 25 | 0 | 0.0 | 4.8 | 0.00 | 0.00 | 0.00 | 42 | 1011.1 |
| 20260510203106 | 25 | 64 | 0.0 | 4.8 | 0.00 | 0.00 | 0.00 | 47 | 1010.8 |
| 20260510202601 | 25 | 0 | 1.6 | 4.8 | 0.00 | 0.00 | 0.00 | 42 | 1010.8 |
| 20260510202100 | 26 | 61 | 0.0 | 6.4 | 0.00 | 0.00 | 0.00 | 46 | 1010.8 |
| 20260510201557 | 26 | 0 | 1.6 | 9.7 | 0.00 | 0.00 | 0.00 | 45 | 1010.7 |
| 20260510201059 | 26 | 329 | 0.0 | 9.7 | 0.00 | 0.00 | 0.00 | 46 | 1010.7 |
| 20260510200601 | 26 | 325 | 1.6 | 11.3 | 0.00 | 0.00 | 0.00 | 45 | 1010.7 |
| 20260510200100 | 27 | 330 | 3.2 | 11.3 | 0.00 | 0.00 | 0.00 | 45 | 1010.8 |
| 20260510195600 | 27 | 71 | 0.0 | 8.0 | 0.00 | 0.00 | 0.00 | 43 | 1010.9 |
| 20260510195100 | 27 | 0 | 0.0 | 8.0 | 0.00 | 0.00 | 0.00 | 43 | 1010.8 |
| 20260510194559 | 27 | 0 | 0.0 | 4.8 | 0.00 | 0.00 | 0.00 | 45 | 1010.9 |
| 20260510194100 | 27 | 0 | 1.6 | 8.0 | 0.00 | 0.00 | 0.00 | 41 | 1011.0 |
| 20260510193601 | 27 | 0 | 1.6 | 8.0 | 0.00 | 0.00 | 0.00 | 44 | 1011.0 |
| 20260510193102 | 26 | 0 | 0.0 | 6.4 | 0.00 | 0.00 | 0.00 | 44 | 1011.1 |
| 20260510192558 | 26 | 20 | 1.6 | 6.4 | 0.00 | 0.00 | 0.00 | 47 | 1011.3 |
| 20260510192100 | 26 | 151 | 3.2 | 6.4 | 0.00 | 0.00 | 0.00 | 42 | 1011.4 |
| 20260510191558 | 27 | 345 | 1.6 | 9.7 | 0.00 | 0.00 | 0.00 | 44 | 1011.6 |
| 20260510191100 | 27 | 279 | 1.6 | 9.7 | 0.00 | 0.00 | 0.00 | 43 | 1011.6 |
| 20260510190600 | 27 | 331 | 1.6 | 9.7 | 0.00 | 0.00 | 0.00 | 41 | 1011.8 |
| 20260510190109 | 27 | 142 | 1.6 | 9.7 | 0.00 | 0.00 | 0.00 | 42 | 1011.6 |
| 20260510185600 | 27 | 142 | 1.6 | 9.7 | 0.00 | 0.00 | 0.00 | 41 | 1011.7 |
| 20260510185100 | 27 | 138 | 3.2 | 8.0 | 0.00 | 0.00 | 0.00 | 42 | 1011.8 |
| 20260510184619 | 27 | 147 | 1.6 | 9.7 | 0.00 | 0.00 | 0.00 | 42 | 1011.6 |
| 20260510184059 | 27 | 136 | 1.6 | 9.7 | 0.00 | 0.00 | 0.00 | 43 | 1011.6 |
| 20260510183600 | 27 | 0 | 1.6 | 8.0 | 0.00 | 0.00 | 0.00 | 42 | 1011.6 |
| 20260510183100 | 27 | 187 | 1.6 | 6.4 | 0.00 | 0.00 | 0.00 | 41 | 1011.6 |
| 20260510182600 | 27 | 270 | 0.0 | 6.4 | 0.00 | 0.00 | 0.00 | 46 | 1011.6 |
| 20260510182101 | 27 | 303 | 1.6 | 8.0 | 0.00 | 0.00 | 0.00 | 50 | 1011.7 |
| 20260510181606 | 27 | 189 | 1.6 | 8.0 | 0.00 | 0.00 | 0.00 | 44 | 1011.7 |
| 20260510181102 | 27 | 139 | 1.6 | 8.0 | 0.00 | 0.00 | 0.00 | 41 | 1011.7 |
| 20260510180600 | 27 | 140 | 4.8 | 8.0 | 0.00 | 0.00 | 0.00 | 41 | 1011.9 |
| 20260510180116 | 27 | 149 | 1.6 | 9.7 | 0.00 | 0.00 | 0.00 | 44 | 1011.9 |
| 20260510175559 | 27 | 0 | 1.6 | 11.3 | 0.00 | 0.00 | 0.00 | 44 | 1012.0 |
| 20260510175101 | 27 | 342 | 3.2 | 11.3 | 0.00 | 0.00 | 0.00 | 41 | 1012.1 |
| 20260510174601 | 26 | 331 | 1.6 | 9.7 | 0.00 | 0.00 | 0.00 | 43 | 1012.0 |
| 20260510174100 | 26 | 135 | 3.2 | 9.7 | 0.00 | 0.00 | 0.00 | 42 | 1012.1 |
| 20260510173600 | 26 | 127 | 1.6 | 8.0 | 0.00 | 0.00 | 0.00 | 45 | 1012.0 |
| 20260510173101 | 26 | 185 | 1.6 | 8.0 | 0.00 | 0.00 | 0.00 | 44 | 1012.1 |
| 20260510172600 | 26 | 191 | 3.2 | 8.0 | 0.00 | 0.00 | 0.00 | 43 | 1012.1 |
| 20260510172059 | 26 | 137 | 1.6 | 11.3 | 0.00 | 0.00 | 0.00 | 45 | 1012.1 |
| 20260510171621 | 26 | 139 | 4.8 | 11.3 | 0.00 | 0.00 | 0.00 | 44 | 1012.1 |
| 20260510171101 | 26 | 339 | 0.0 | 3.2 | 0.00 | 0.00 | 0.00 | 46 | 1012.1 |
| 20260510170600 | 26 | 0 | 0.0 | 4.8 | 0.00 | 0.00 | 0.00 | 46 | 1012.2 |
| 20260510170105 | 25 | 0 | 0.0 | 6.4 | 0.00 | 0.00 | 0.00 | 48 | 1012.1 |
| 20260510165600 | 25 | 150 | 1.6 | 16.1 | 0.00 | 0.00 | 0.00 | 49 | 1012.1 |
| 20260510165059 | 25 | 149 | 6.4 | 16.1 | 0.00 | 0.00 | 0.00 | 45 | 1012.1 |
| 20260510164558 | 25 | 0 | 3.2 | 16.1 | 0.00 | 0.00 | 0.00 | 46 | 1012.2 |
| 20260510164059 | 25 | 0 | 1.6 | 6.4 | 0.00 | 0.00 | 0.00 | 46 | 1012.3 |
| 20260510163600 | 25 | 130 | 0.0 | 3.2 | 0.00 | 0.00 | 0.00 | 46 | 1012.4 |
| 20260510163100 | 25 | 326 | 1.6 | 8.0 | 0.00 | 0.00 | 0.00 | 49 | 1012.5 |
| 20260510162600 | 25 | 326 | 0.0 | 8.0 | 0.00 | 0.00 | 0.00 | 48 | 1012.6 |
| 20260510162100 | 25 | 317 | 1.6 | 8.0 | 0.00 | 0.00 | 0.00 | 47 | 1012.6 |
| 20260510161600 | 25 | 130 | 4.8 | 8.0 | 0.00 | 0.00 | 0.00 | 50 | 1012.6 |
| 20260510161100 | 25 | 109 | 0.0 | 11.3 | 0.00 | 0.00 | 0.00 | 50 | 1012.7 |
| 20260510160601 | 24 | 317 | 1.6 | 11.3 | 0.00 | 0.00 | 0.00 | 54 | 1012.7 |
| 20260510160110 | 24 | 0 | 3.2 | 11.3 | 0.00 | 0.00 | 0.00 | 49 | 1012.7 |
| 20260510155600 | 24 | 127 | 1.6 | 6.4 | 0.00 | 0.00 | 0.00 | 51 | 1012.7 |
| 20260510155100 | 24 | 0 | 1.6 | 9.7 | 0.00 | 0.00 | 0.00 | 54 | 1012.8 |
| 20260510154623 | 23 | 302 | 1.6 | 9.7 | 0.00 | 0.00 | 0.00 | 50 | 1012.9 |
| 20260510154059 | 23 | 0 | 1.6 | 6.4 | 0.00 | 0.00 | 0.00 | 52 | 1012.9 |
| 20260510153559 | 23 | 251 | 1.6 | 6.4 | 0.00 | 0.00 | 0.00 | 54 | 1012.9 |
| 20260510153105 | 23 | 325 | 0.0 | 4.8 | 0.00 | 0.00 | 0.00 | 49 | 1012.9 |
| 20260510152600 | 23 | 0 | 1.6 | 9.7 | 0.00 | 0.00 | 0.00 | 53 | 1012.9 |
| 20260510152100 | 23 | 0 | 0.0 | 9.7 | 0.00 | 0.00 | 0.00 | 52 | 1012.8 |
| 20260510151559 | 22 | 0 | 1.6 | 8.0 | 0.00 | 0.00 | 0.00 | 50 | 1012.8 |
| 20260510151100 | 22 | 119 | 1.6 | 9.7 | 0.00 | 0.00 | 0.00 | 52 | 1012.7 |
| 20260510150600 | 22 | 110 | 1.6 | 9.7 | 0.00 | 0.00 | 0.00 | 50 | 1012.8 |
| 20260510150124 | 22 | 0 | 3.2 | 9.7 | 0.00 | 0.00 | 0.00 | 53 | 1012.8 |
| 20260510145600 | 22 | 0 | 0.0 | 9.7 | 0.00 | 0.00 | 0.00 | 51 | 1012.7 |
| 20260510145059 | 22 | 0 | 0.0 | 3.2 | 0.00 | 0.00 | 0.00 | 52 | 1012.7 |
| 20260510144615 | 22 | 0 | 0.0 | 4.8 | 0.00 | 0.00 | 0.00 | 52 | 1012.6 |
| 20260510144100 | 22 | 0 | 0.0 | 8.0 | 0.00 | 0.00 | 0.00 | 51 | 1012.4 |
| 20260510143600 | 22 | 333 | 1.6 | 8.0 | 0.00 | 0.00 | 0.00 | 54 | 1012.5 |
| 20260510143104 | 22 | 357 | 0.0 | 4.8 | 0.00 | 0.00 | 0.00 | 59 | 1012.4 |
| 20260510142600 | 22 | 0 | 0.0 | 4.8 | 0.00 | 0.00 | 0.00 | 59 | 1012.3 |
| 20260510142104 | 22 | 0 | 0.0 | 4.8 | 0.00 | 0.00 | 0.00 | 58 | 1012.2 |
| 20260510141601 | 22 | 357 | 0.0 | 4.8 | 0.00 | 0.00 | 0.00 | 58 | 1012.2 |
| 20260510141100 | 21 | 0 | 0.0 | 4.8 | 0.00 | 0.00 | 0.00 | 60 | 1012.2 |
| 20260510140559 | 21 | 0 | 0.0 | 3.2 | 0.00 | 0.00 | 0.00 | 62 | 1012.1 |
| 20260510140100 | 20 | 0 | 0.0 | 4.8 | 0.00 | 0.00 | 0.00 | 65 | 1012.2 |
| 20260510135600 | 20 | 0 | 0.0 | 4.8 | 0.00 | 0.00 | 0.00 | 68 | 1012.3 |
| 20260510135102 | 20 | 352 | 1.6 | 4.8 | 0.00 | 0.00 | 0.00 | 68 | 1012.3 |
| 20260510134604 | 20 | 353 | 0.0 | 1.6 | 0.00 | 0.00 | 0.00 | 69 | 1012.4 |
| 20260510134100 | 19 | 0 | 0.0 | 3.2 | 0.00 | 0.00 | 0.00 | 72 | 1012.3 |
| 20260510133559 | 18 | 0 | 0.0 | 3.2 | 0.00 | 0.00 | 0.00 | 75 | 1012.4 |
| 20260510133059 | 18 | 0 | 0.0 | 0.0 | 0.00 | 0.00 | 0.00 | 76 | 1012.4 |
| 20260510132600 | 17 | 0 | 0.0 | 1.6 | 0.00 | 0.00 | 0.00 | 79 | 1012.2 |
| 20260510132100 | 17 | 0 | 0.0 | 3.2 | 0.00 | 0.00 | 0.00 | 80 | 1012.3 |
| 20260510131558 | 16 | 0 | 0.0 | 3.2 | 0.00 | 0.00 | 0.00 | 82 | 1012.2 |
| 20260510131100 | 16 | 0 | 0.0 | 1.6 | 0.00 | 0.00 | 0.00 | 85 | 1012.2 |
| 20260510130600 | 15 | 0 | 0.0 | 1.6 | 0.00 | 0.00 | 0.00 | 86 | 1012.4 |
| 20260510130059 | 15 | 0 | 0.0 | 1.6 | 0.00 | 0.00 | 0.00 | 88 | 1012.3 |
| 20260510125559 | 15 | 0 | 0.0 | 3.2 | 0.00 | 0.00 | 0.00 | 89 | 1012.5 |
| 20260510125100 | 15 | 0 | 0.0 | 3.2 | 0.00 | 0.00 | 0.00 | 91 | 1012.7 |
| 20260510124601 | 14 | 0 | 0.0 | 1.6 | 0.00 | 0.00 | 0.00 | 92 | 1012.7 |
| 20260510124100 | 13 | 0 | 0.0 | 1.6 | 0.00 | 0.00 | 0.00 | 93 | 1012.9 |
| 20260510123600 | 13 | 0 | 0.0 | 1.6 | 0.00 | 0.00 | 0.00 | 94 | 1013.0 |
| 20260510123100 | 13 | 0 | 0.0 | 1.6 | 0.00 | 0.00 | 0.00 | 94 | 1012.8 |
| 20260510122559 | 13 | 0 | 0.0 | 1.6 | 0.00 | 0.00 | 0.00 | 94 | 1012.7 |
| 20260510122059 | 12 | 0 | 0.0 | 1.6 | 0.00 | 0.00 | 0.00 | 94 | 1012.7 |
| 20260510121601 | 12 | 0 | 0.0 | 1.6 | 0.00 | 0.00 | 0.00 | 94 | 1012.6 |
| 20260510121101 | 12 | 0 | 0.0 | 1.6 | 0.00 | 0.00 | 0.00 | 94 | 1012.5 |
| 20260510120600 | 11 | 0 | 0.0 | 3.2 | 0.00 | 0.00 | 0.00 | 94 | 1012.3 |
| 20260510120100 | 11 | 0 | 0.0 | 3.2 | 0.00 | 0.00 | 0.00 | 94 | 1012.2 |
| 20260510115600 | 11 | 259 | 0.0 | 1.6 | 0.00 | 0.00 | 0.00 | 94 | 1012.2 |
| 20260510115100 | 11 | 0 | 0.0 | 1.6 | 0.00 | 0.00 | 0.00 | 94 | 1012.0 |
| 20260510114600 | 11 | 0 | 0.0 | 1.6 | 0.00 | 0.00 | 0.00 | 94 | 1011.9 |
| 20260510114059 | 10 | 0 | 0.0 | 3.2 | 0.00 | 0.00 | 0.00 | 94 | 1012.0 |
| 20260510113632 | 10 | 0 | 0.0 | 3.2 | 0.00 | 0.00 | 0.00 | 93 | 1011.8 |
| 20260510113102 | 10 | 0 | 0.0 | 1.6 | 0.00 | 0.00 | 0.00 | 94 | 1011.8 |
| 20260510112600 | 10 | 0 | 0.0 | 1.6 | 0.00 | 0.00 | 0.00 | 94 | 1011.7 |
| 20260510112100 | 10 | 0 | 0.0 | 0.0 | 0.00 | 0.00 | 0.00 | 93 | 1011.7 |
| 20260510111600 | 10 | 0 | 0.0 | 0.0 | 0.00 | 0.00 | 0.00 | 93 | 1011.6 |
| 20260510111059 | 10 | 0 | 0.0 | 0.0 | 0.00 | 0.00 | 0.00 | 93 | 1011.6 |
| 20260510110559 | 10 | 0 | 0.0 | 0.0 | 0.00 | 0.00 | 0.00 | 93 | 1011.4 |
| 20260510110059 | 10 | 0 | 0.0 | 0.0 | 0.00 | 0.00 | 0.00 | 93 | 1011.3 |
| 20260510105600 | 9 | 0 | 0.0 | 0.0 | 0.00 | 0.00 | 0.00 | 93 | 1011.2 |
| 20260510105059 | 9 | 0 | 0.0 | 0.0 | 0.00 | 0.00 | 0.00 | 92 | 1011.1 |
| 20260510104610 | 9 | 0 | 0.0 | 0.0 | 0.00 | 0.00 | 0.00 | 92 | 1011.1 |
| 20260510104100 | 9 | 0 | 0.0 | 0.0 | 0.00 | 0.00 | 0.00 | 92 | 1011.1 |
| 20260510103600 | 9 | 0 | 0.0 | 0.0 | 0.00 | 0.00 | 0.00 | 92 | 1010.9 |
| 20260510103058 | 9 | 0 | 0.0 | 0.0 | 0.00 | 0.00 | 0.00 | 92 | 1010.9 |
| 20260510102600 | 9 | 0 | 0.0 | 0.0 | 0.00 | 0.00 | 0.00 | 92 | 1010.9 |
| 20260510102100 | 9 | 0 | 0.0 | 1.6 | 0.00 | 0.00 | 0.00 | 92 | 1010.8 |
| 20260510101603 | 9 | 0 | 0.0 | 1.6 | 0.00 | 0.00 | 0.00 | 92 | 1010.9 |
| 20260510101102 | 9 | 0 | 0.0 | 0.0 | 0.00 | 0.00 | 0.00 | 92 | 1010.8 |
| 20260510100600 | 9 | 0 | 0.0 | 0.0 | 0.00 | 0.00 | 0.00 | 92 | 1010.7 |
| 20260510100059 | 10 | 0 | 0.0 | 0.0 | 0.00 | 0.00 | 0.00 | 92 | 1010.7 |
| 20260510095559 | 10 | 0 | 0.0 | 0.0 | 0.00 | 0.00 | 0.00 | 92 | 1010.6 |
| 20260510095059 | 10 | 0 | 0.0 | 0.0 | 0.00 | 0.00 | 0.00 | 92 | 1010.7 |
| 20260510094615 | 10 | 0 | 0.0 | 0.0 | 0.00 | 0.00 | 0.00 | 92 | 1010.6 |
| 20260510094059 | 10 | 0 | 0.0 | 0.0 | 0.00 | 0.00 | 0.00 | 92 | 1010.6 |
| 20260510093559 | 10 | 0 | 0.0 | 0.0 | 0.00 | 0.00 | 0.00 | 92 | 1010.6 |
| 20260510093059 | 10 | 0 | 0.0 | 0.0 | 0.00 | 0.00 | 0.00 | 92 | 1010.6 |
| 20260510092602 | 10 | 0 | 0.0 | 0.0 | 0.00 | 0.00 | 0.00 | 91 | 1010.6 |
| 20260510092059 | 10 | 0 | 0.0 | 0.0 | 0.00 | 0.00 | 0.00 | 92 | 1010.6 |
| 20260510091559 | 10 | 0 | 0.0 | 0.0 | 0.00 | 0.00 | 0.00 | 92 | 1010.7 |
| 20260510091101 | 10 | 0 | 0.0 | 0.0 | 0.00 | 0.00 | 0.00 | 92 | 1010.6 |
| 20260510090600 | 10 | 0 | 0.0 | 0.0 | 0.00 | 0.00 | 0.00 | 92 | 1010.5 |
| 20260510090059 | 10 | 0 | 0.0 | 0.0 | 0.00 | 0.00 | 0.00 | 92 | 1010.4 |
| 20260510085600 | 10 | 0 | 0.0 | 0.0 | 0.00 | 0.00 | 0.00 | 92 | 1010.5 |
| 20260510085100 | 10 | 0 | 0.0 | 0.0 | 0.00 | 0.00 | 0.00 | 92 | 1010.5 |
| 20260510084614 | 10 | 0 | 0.0 | 0.0 | 0.00 | 0.00 | 0.00 | 92 | 1010.4 |
| 20260510084100 | 10 | 0 | 0.0 | 0.0 | 0.00 | 0.00 | 0.00 | 92 | 1010.3 |
| 20260510083559 | 10 | 0 | 0.0 | 0.0 | 0.00 | 0.00 | 0.00 | 92 | 1010.3 |
| 20260510083117 | 10 | 0 | 0.0 | 0.0 | 0.00 | 0.00 | 0.00 | 92 | 1010.2 |
| 20260510082600 | 10 | 0 | 0.0 | 0.0 | 0.00 | 0.00 | 0.00 | 92 | 1010.1 |
| 20260510082059 | 10 | 0 | 0.0 | 0.0 | 0.00 | 0.00 | 0.00 | 92 | 1010.2 |
| 20260510081613 | 10 | 0 | 0.0 | 0.0 | 0.00 | 0.00 | 0.00 | 92 | 1010.1 |
| 20260510081100 | 10 | 0 | 0.0 | 1.6 | 0.00 | 0.00 | 0.00 | 91 | 1010.0 |
| 20260510080559 | 10 | 0 | 0.0 | 1.6 | 0.00 | 0.00 | 0.00 | 91 | 1010.0 |
| 20260510080058 | 10 | 0 | 0.0 | 3.2 | 0.00 | 0.00 | 0.00 | 91 | 1010.0 |
| 20260510075559 | 10 | 0 | 0.0 | 3.2 | 0.00 | 0.00 | 0.00 | 91 | 1010.1 |
| 20260510075059 | 11 | 0 | 0.0 | 3.2 | 0.00 | 0.00 | 0.00 | 91 | 1010.1 |
| 20260510074600 | 11 | 0 | 0.0 | 0.0 | 0.00 | 0.00 | 0.00 | 91 | 1009.8 |
| 20260510074100 | 11 | 0 | 0.0 | 0.0 | 0.00 | 0.00 | 0.00 | 92 | 1009.7 |
| 20260510073556 | 11 | 0 | 0.0 | 0.0 | 0.00 | 0.00 | 0.00 | 91 | 1009.7 |
| 20260510073100 | 11 | 0 | 0.0 | 1.6 | 0.00 | 0.00 | 0.00 | 91 | 1009.6 |
| 20260510072600 | 11 | 0 | 0.0 | 3.2 | 0.00 | 0.00 | 0.00 | 91 | 1009.6 |
| 20260510072100 | 11 | 0 | 0.0 | 3.2 | 0.00 | 0.00 | 0.00 | 92 | 1009.6 |
| 20260510071601 | 11 | 0 | 0.0 | 0.0 | 0.00 | 0.00 | 0.00 | 91 | 1009.6 |
| 20260510071101 | 11 | 0 | 0.0 | 0.0 | 0.00 | 0.00 | 0.00 | 91 | 1009.4 |
| 20260510070559 | 11 | 0 | 0.0 | 0.0 | 0.00 | 0.00 | 0.00 | 91 | 1009.3 |
| 20260510070059 | 11 | 0 | 0.0 | 0.0 | 0.00 | 0.00 | 0.00 | 91 | 1009.2 |
| 20260510065600 | 11 | 0 | 0.0 | 0.0 | 0.00 | 0.00 | 0.00 | 91 | 1009.1 |
| 20260510065059 | 11 | 0 | 0.0 | 0.0 | 0.00 | 0.00 | 0.00 | 91 | 1009.1 |
| 20260510064603 | 11 | 0 | 0.0 | 0.0 | 0.00 | 0.00 | 0.00 | 91 | 1009.1 |
| 20260510064059 | 11 | 0 | 0.0 | 0.0 | 0.00 | 0.00 | 0.00 | 91 | 1009.1 |
| 20260510063556 | 11 | 0 | 0.0 | 0.0 | 0.00 | 0.00 | 0.00 | 91 | 1009.2 |
| 20260510063059 | 11 | 0 | 0.0 | 0.0 | 0.00 | 0.00 | 0.00 | 91 | 1009.2 |
| 20260510062600 | 11 | 0 | 0.0 | 0.0 | 0.00 | 0.00 | 0.00 | 91 | 1009.2 |
| 20260510062059 | 11 | 0 | 0.0 | 0.0 | 0.00 | 0.00 | 0.00 | 90 | 1009.2 |
| 20260510061605 | 11 | 0 | 0.0 | 0.0 | 0.00 | 0.00 | 0.00 | 91 | 1009.1 |
| 20260510061100 | 11 | 0 | 0.0 | 0.0 | 0.00 | 0.00 | 0.00 | 90 | 1009.1 |
| 20260510060603 | 12 | 0 | 0.0 | 0.0 | 0.00 | 0.00 | 0.00 | 91 | 1009.1 |
| 20260510060059 | 12 | 0 | 0.0 | 0.0 | 0.00 | 0.00 | 0.00 | 91 | 1009.2 |
| 20260510055559 | 12 | 0 | 0.0 | 0.0 | 0.00 | 0.00 | 0.00 | 90 | 1009.2 |
| 20260510055100 | 12 | 0 | 0.0 | 0.0 | 0.00 | 0.00 | 0.00 | 91 | 1009.2 |
| 20260510054557 | 12 | 0 | 0.0 | 0.0 | 0.00 | 0.00 | 0.00 | 90 | 1009.1 |
| 20260510054100 | 12 | 0 | 0.0 | 1.6 | 0.00 | 0.00 | 0.00 | 90 | 1009.2 |
| 20260510053600 | 12 | 0 | 0.0 | 1.6 | 0.00 | 0.00 | 0.00 | 90 | 1009.2 |
| 20260510053101 | 12 | 0 | 0.0 | 1.6 | 0.00 | 0.00 | 0.00 | 90 | 1009.2 |
| 20260510052559 | 12 | 0 | 0.0 | 1.6 | 0.00 | 0.00 | 0.00 | 90 | 1009.3 |
| 20260510052059 | 12 | 0 | 0.0 | 0.0 | 0.00 | 0.00 | 0.00 | 90 | 1009.2 |
| 20260510051601 | 12 | 0 | 0.0 | 0.0 | 0.00 | 0.00 | 0.00 | 90 | 1009.2 |
| 20260510051109 | 12 | 0 | 0.0 | 0.0 | 0.00 | 0.00 | 0.00 | 90 | 1009.2 |
| 20260510050559 | 12 | 0 | 0.0 | 0.0 | 0.00 | 0.00 | 0.00 | 90 | 1009.2 |
| 20260510050059 | 12 | 0 | 0.0 | 0.0 | 0.00 | 0.00 | 0.00 | 89 | 1009.1 |
| 20260510045559 | 12 | 0 | 0.0 | 1.6 | 0.00 | 0.00 | 0.00 | 89 | 1009.1 |
| 20260510045059 | 12 | 0 | 0.0 | 1.6 | 0.00 | 0.00 | 0.00 | 89 | 1009.2 |
| 20260510044559 | 12 | 0 | 0.0 | 1.6 | 0.00 | 0.00 | 0.00 | 90 | 1009.2 |
| 20260510044059 | 12 | 152 | 0.0 | 1.6 | 0.00 | 0.00 | 0.00 | 90 | 1009.0 |
| 20260510043559 | 12 | 0 | 0.0 | 1.6 | 0.00 | 0.00 | 0.00 | 89 | 1009.1 |
| 20260510043111 | 12 | 0 | 0.0 | 0.0 | 0.00 | 0.00 | 0.00 | 89 | 1009.1 |
| 20260510042559 | 13 | 0 | 0.0 | 0.0 | 0.00 | 0.00 | 0.00 | 89 | 1009.1 |
| 20260510042059 | 13 | 0 | 0.0 | 0.0 | 0.00 | 0.00 | 0.00 | 89 | 1009.1 |
| 20260510041604 | 13 | 0 | 0.0 | 0.0 | 0.00 | 0.00 | 0.00 | 89 | 1009.1 |
| 20260510041059 | 13 | 0 | 0.0 | 0.0 | 0.00 | 0.00 | 0.00 | 88 | 1009.1 |
| 20260510040600 | 13 | 0 | 0.0 | 0.0 | 0.00 | 0.00 | 0.00 | 88 | 1009.1 |
| 20260510040107 | 13 | 0 | 0.0 | 0.0 | 0.00 | 0.00 | 0.00 | 88 | 1009.1 |
| 20260510035559 | 13 | 0 | 0.0 | 0.0 | 0.00 | 0.00 | 0.00 | 87 | 1009.2 |
| 20260510035103 | 13 | 0 | 0.0 | 0.0 | 0.00 | 0.00 | 0.00 | 87 | 1009.1 |
| 20260510034602 | 13 | 0 | 0.0 | 0.0 | 0.00 | 0.00 | 0.00 | 87 | 1009.1 |
| 20260510034100 | 13 | 0 | 0.0 | 0.0 | 0.00 | 0.00 | 0.00 | 87 | 1009.0 |
| 20260510033600 | 13 | 0 | 0.0 | 0.0 | 0.00 | 0.00 | 0.00 | 87 | 1008.9 |
| 20260510033057 | 13 | 0 | 0.0 | 0.0 | 0.00 | 0.00 | 0.00 | 86 | 1008.9 |
| 20260510032559 | 13 | 0 | 0.0 | 0.0 | 0.00 | 0.00 | 0.00 | 86 | 1008.8 |
| 20260510032059 | 14 | 0 | 0.0 | 0.0 | 0.00 | 0.00 | 0.00 | 86 | 1008.9 |
| 20260510031604 | 14 | 0 | 0.0 | 0.0 | 0.00 | 0.00 | 0.00 | 85 | 1008.9 |
| 20260510031058 | 14 | 0 | 0.0 | 0.0 | 0.00 | 0.00 | 0.00 | 85 | 1008.8 |
| 20260510030558 | 14 | 0 | 0.0 | 0.0 | 0.00 | 0.00 | 0.00 | 84 | 1008.9 |
| 20260510030103 | 15 | 0 | 0.0 | 0.0 | 0.00 | 0.00 | 0.00 | 84 | 1009.0 |
| 20260510025600 | 15 | 0 | 0.0 | 0.0 | 0.00 | 0.00 | 0.00 | 84 | 1008.9 |
| 20260510025100 | 15 | 0 | 0.0 | 0.0 | 0.00 | 0.00 | 0.00 | 83 | 1008.8 |
| 20260510024558 | 15 | 0 | 0.0 | 0.0 | 0.00 | 0.00 | 0.00 | 83 | 1008.8 |
| 20260510024059 | 15 | 0 | 0.0 | 0.0 | 0.00 | 0.00 | 0.00 | 83 | 1008.7 |
| 20260510023559 | 15 | 0 | 0.0 | 0.0 | 0.00 | 0.00 | 0.00 | 83 | 1008.6 |
| 20260510023057 | 15 | 0 | 0.0 | 0.0 | 0.00 | 0.00 | 0.00 | 82 | 1008.6 |
| 20260510022559 | 15 | 0 | 0.0 | 0.0 | 0.00 | 0.00 | 0.00 | 82 | 1008.6 |
| 20260510022059 | 15 | 0 | 0.0 | 1.6 | 0.00 | 0.00 | 0.00 | 82 | 1008.6 |
| 20260510021556 | 15 | 0 | 0.0 | 1.6 | 0.00 | 0.00 | 0.00 | 82 | 1008.7 |
| 20260510021059 | 15 | 0 | 0.0 | 1.6 | 0.00 | 0.00 | 0.00 | 82 | 1008.5 |
| 20260510020559 | 15 | 0 | 0.0 | 1.6 | 0.00 | 0.00 | 0.00 | 82 | 1008.5 |
| 20260510020058 | 15 | 0 | 0.0 | 0.0 | 0.00 | 0.00 | 0.00 | 81 | 1008.4 |
| 20260510015559 | 16 | 0 | 0.0 | 0.0 | 0.00 | 0.00 | 0.00 | 81 | 1008.3 |
| 20260510015059 | 16 | 0 | 0.0 | 0.0 | 0.00 | 0.00 | 0.00 | 80 | 1008.2 |
| 20260510014601 | 16 | 0 | 0.0 | 0.0 | 0.00 | 0.00 | 0.00 | 80 | 1008.2 |
| 20260510014101 | 16 | 0 | 0.0 | 0.0 | 0.00 | 0.00 | 0.00 | 79 | 1008.2 |
| 20260510013602 | 16 | 0 | 0.0 | 0.0 | 0.00 | 0.00 | 0.00 | 79 | 1008.2 |
| 20260510013113 | 16 | 0 | 0.0 | 0.0 | 0.00 | 0.00 | 0.00 | 79 | 1008.0 |
| 20260510012601 | 16 | 0 | 0.0 | 0.0 | 0.00 | 0.00 | 0.00 | 79 | 1008.0 |
| 20260510012101 | 16 | 0 | 0.0 | 0.0 | 0.00 | 0.00 | 0.00 | 79 | 1008.0 |
| 20260510011600 | 16 | 0 | 0.0 | 0.0 | 0.00 | 0.00 | 0.00 | 78 | 1007.9 |
| 20260510011100 | 16 | 0 | 0.0 | 0.0 | 0.00 | 0.00 | 0.00 | 77 | 1007.9 |
| 20260510010601 | 16 | 0 | 0.0 | 0.0 | 0.00 | 0.00 | 0.00 | 77 | 1007.8 |
| 20260510010058 | 16 | 0 | 0.0 | 0.0 | 0.00 | 0.00 | 0.00 | 76 | 1007.7 |
| 20260510005600 | 17 | 0 | 0.0 | 0.0 | 0.00 | 0.00 | 0.00 | 75 | 1007.7 |
| 20260510005100 | 17 | 0 | 0.0 | 0.0 | 0.00 | 0.00 | 0.00 | 74 | 1007.7 |
| 20260510004604 | 17 | 0 | 0.0 | 0.0 | 0.00 | 0.00 | 0.00 | 73 | 1007.5 |
| 20260510004059 | 17 | 0 | 0.0 | 0.0 | 0.00 | 0.00 | 0.00 | 73 | 1007.5 |
| 20260510003600 | 17 | 0 | 0.0 | 0.0 | 0.00 | 0.00 | 0.00 | 72 | 1007.6 |
| 20260510003105 | 18 | 0 | 0.0 | 0.0 | 0.00 | 0.00 | 0.00 | 71 | 1007.6 |
| 20260510002601 | 18 | 0 | 0.0 | 0.0 | 0.00 | 0.00 | 0.00 | 70 | 1007.6 |
| 20260510002100 | 18 | 0 | 0.0 | 0.0 | 0.00 | 0.00 | 0.00 | 69 | 1007.5 |
| 20260510001600 | 18 | 0 | 0.0 | 1.6 | 0.00 | 0.00 | 0.00 | 68 | 1007.4 |
| 20260510001101 | 19 | 0 | 0.0 | 1.6 | 0.00 | 0.00 | 0.00 | 67 | 1007.4 |
| 20260510000602 | 19 | 0 | 0.0 | 0.0 | 0.00 | 0.00 | 0.00 | 66 | 1007.3 |
| 20260510000103 | 20 | 0 | 0.0 | 0.0 | 0.00 | 0.00 | 0.00 | 66 | 1007.3 |
| 20260509235600 | 20 | 0 | 0.0 | 0.0 | 0.00 | 0.00 | 0.00 | 65 | 1007.2 |
| 20260509235100 | 20 | 0 | 0.0 | 0.0 | 0.00 | 0.00 | 0.00 | 64 | 1007.3 |
| 20260509234602 | 20 | 0 | 0.0 | 0.0 | 0.00 | 0.00 | 0.00 | 63 | 1007.2 |
| 20260509234100 | 20 | 0 | 0.0 | 0.0 | 0.00 | 0.00 | 0.00 | 63 | 1007.2 |
| 20260509233602 | 21 | 0 | 0.0 | 0.0 | 0.00 | 0.00 | 0.00 | 62 | 1007.1 |
| 20260509233113 | 21 | 0 | 0.0 | 0.0 | 0.00 | 0.00 | 0.00 | 61 | 1007.2 |
| 20260509232601 | 21 | 0 | 0.0 | 0.0 | 0.00 | 0.00 | 0.00 | 60 | 1007.0 |
| 20260509232101 | 21 | 0 | 0.0 | 0.0 | 0.00 | 0.00 | 0.00 | 60 | 1007.1 |
| 20260509231605 | 21 | 0 | 0.0 | 1.6 | 0.00 | 0.00 | 0.00 | 59 | 1007.1 |